This is the latest recevied weather packets stored in our database for station/object 9W2KHE-10. If no packets are shown the sender has not sent any weather packets the latest 10 day(s).
| Time | Temp. | Humidity | Pressure | Rain* | Wind** | Luminosity | Snow |
|---|---|---|---|---|---|---|---|
| 1777730697 | 30° C | 63% | 1011.5 hPa | - | - | - | - |
| 1777729797 | 30° C | 62% | 1011.3 hPa | - | - | - | - |
| 1777728896 | 30° C | 63% | 1011.2 hPa | - | - | - | - |
| 1777727996 | 30.56° C | 62% | 1010.9 hPa | - | - | - | - |
| 1777727096 | 30.56° C | 62% | 1010.6 hPa | - | - | - | - |
| 1777726196 | 30.56° C | 62% | 1010.5 hPa | - | - | - | - |
| 1777725296 | 30.56° C | 61% | 1010.1 hPa | - | - | - | - |
| 1777724395 | 30.56° C | 61% | 1009.8 hPa | - | - | - | - |
| 1777723495 | 30.56° C | 62% | 1009.6 hPa | - | - | - | - |
| 1777722595 | 30.56° C | 61% | 1009.4 hPa | - | - | - | - |
| 1777721695 | 30.56° C | 61% | 1009.3 hPa | - | - | - | - |
| 1777720795 | 31.11° C | 61% | 1008.9 hPa | - | - | - | - |
| 1777719898 | 31.11° C | 60% | 1009 hPa | - | - | - | - |
| 1777718998 | 31.11° C | 60% | 1008.7 hPa | - | - | - | - |
| 1777718098 | 31.11° C | 59% | 1008.4 hPa | - | - | - | - |
| 1777717197 | 31.11° C | 59% | 1008.4 hPa | - | - | - | - |
| 1777716297 | 31.11° C | 59% | 1008.2 hPa | - | - | - | - |
| 1777715397 | 31.67° C | 59% | 1008 hPa | - | - | - | - |
| 1777714496 | 31.67° C | 59% | 1008.4 hPa | - | - | - | - |
| 1777713596 | 31.67° C | 58% | 1008.3 hPa | - | - | - | - |
| 1777712696 | 31.67° C | 57% | 1008.4 hPa | - | - | - | - |
| 1777711796 | 32.22° C | 57% | 1008.7 hPa | - | - | - | - |
| 1777710896 | 32.78° C | 58% | 1008.6 hPa | - | - | - | - |
| 1777709996 | 33.89° C | 55% | 1008.3 hPa | - | - | - | - |
| 1777709096 | 33.33° C | 54% | 1008.1 hPa | - | - | - | - |
* Rain since midnight (hover to see other rain measurements)
** Current wind speed in m/s (hover to see current wind gust speed)